Location: De Lemmer
(52.8462°N, 5.7091°E)
Time: 11:25:59
(UTC+00:00)

Cosmos 2061 Rocket - Pass Details

Date: 18 September 2020
Orbit: 966 x 1012 km, 82.9° (Epoch: 30 October)

Event Time Altitude Azimuth Distance (km) Brightness Sun altitude
Rises 18:07:04 0° 195° (SSW) 3,671 7.1 -4.2°
Reaches altitude 10° 18:09:34 10° 197° (SSW) 2,734 6.5 -4.6°
Maximum altitude 18:15:50 73° 282° (WNW) 1,039 4.4 -5.6°
Drops below altitude 10° 18:22:15 10° 8° (N) 2,784 6.4 -6.5°
Sets 18:24:49 0° 10° (N) 3,744 7.1 -6.9°
